Weather History for Mullan Pass, ID

Change the Weather History Date:

Wednesday, April 9, 2014

  Actual Average (K3TH) Record (K3TH)
Temperature  
Mean Temperature 36 °F -  
Max Temperature 41 °F 50 °F 53 °F (1998)
Min Temperature 30 °F 31 °F 30 °F (1998)
Degree Days  
Heating Degree Days 30    
Moisture  
Dew Point 28 °F    
Average Humidity 78    
Maximum Humidity 100    
Minimum Humidity 43    
Precipitation  
Precipitation 0.10 in - - ()
Sea Level Pressure  
Sea Level Pressure 29.88 in    
Wind  
Wind Speed 11 mph (WSW)    
Max Wind Speed 16 mph    
Max Gust Speed 33 mph    
Visibility 8 miles    
Events Fog , Rain , Snow    
Averages and records for this station are not official NWS values.
T = Trace of Precipitation, MM = Missing Value Source: NWS Daily Summary

Daily Weather History Graph

Daily Weather History Graph

Search for Another Location

Airport:

Trip Planner

Search our weather history database for the weather conditions in past years. The results will help you decide how hot, cold, wet, or windy it might be!

Date:

Astronomy

Apr. 09, 2014 Rise Set
Actual Time 6:05 AM PDT 7:23 PM PDT
Civil Twilight 5:33 AM PDT 7:55 PM PDT
Nautical Twilight 4:55 AM PDT 8:34 PM PDT
Astronomical Twilight 4:14 AM PDT 9:15 PM PDT
Moon 1:56 PM PDT (4/9) 3:18 AM PDT (4/9)
Length of Visible Light 14h 21m
Length of Day
13h 18m
Waxing Gibbous, 72% of the Moon is Illuminated
Apr 9
Waxing Gibbous
Apr 15
Full
Apr 22
Last Quarter
Apr 28
New
May 6
First Quarter

Hourly Weather History & Observations

Time (PDT) Temp. Windchill Dew Point Humidity Pressure Visibility Wind Dir Wind Speed Gust Speed Precip Events Conditions
12:53 AM 41.0 °F 33.5 °F 34.0 °F 76% 29.76 in 10.0 mi SW 13.8 mph 31.1 mph N/A   Partly Cloudy
1:41 AM 39.2 °F 33.0 °F 33.8 °F 81% 29.94 in 10.0 mi West 9.2 mph 32.2 mph 0.00 in Rain Light Rain
1:53 AM 39.0 °F 32.8 °F 34.0 °F 82% 29.76 in 10.0 mi West 9.2 mph - 0.00 in   Overcast
2:53 AM 37.0 °F 28.5 °F 34.0 °F 89% 29.75 in 9.0 mi WSW 13.8 mph 24.2 mph 0.00 in Rain Light Rain
3:15 AM 35.6 °F 29.2 °F 33.8 °F 93% 29.92 in 7.0 mi SW 8.1 mph 20.7 mph 0.02 in Rain Light Rain
3:30 AM 35.6 °F 27.1 °F 33.8 °F 93% 29.91 in 7.0 mi SW 12.7 mph 27.6 mph 0.03 in Rain Light Rain
3:41 AM 35.6 °F 26.2 °F 33.8 °F 93% 29.91 in 8.0 mi SW 15.0 mph 33.4 mph 0.04 in Rain Light Rain
3:49 AM 33.8 °F 24.3 °F 33.8 °F 100% 29.91 in 7.0 mi SW 13.8 mph 33.4 mph 0.04 in Rain Light Rain
3:51 AM 33.8 °F 23.5 °F 33.8 °F 100% 29.91 in 7.0 mi SW 16.1 mph 27.6 mph 0.04 in Rain Light Rain
3:53 AM 34.0 °F 25.0 °F 33.1 °F 96% 29.78 in 6.0 mi SW 12.7 mph 27.6 mph 0.04 in Rain Light Rain
4:06 AM 33.8 °F 26.4 °F 33.8 °F 100% 29.91 in 6.0 mi WSW 9.2 mph 24.2 mph 0.01 in Rain Light Rain
4:53 AM 34.0 °F 27.2 °F 33.1 °F 96% 29.76 in 9.0 mi West 8.1 mph 20.7 mph 0.02 in Rain Light Rain
5:01 AM 33.8 °F 24.8 °F 33.8 °F 100% 29.91 in 2.5 mi WNW 12.7 mph 27.6 mph 0.00 in Snow Light Snow
5:05 AM 33.8 °F 25.8 °F 33.8 °F 100% 29.91 in 1.2 mi WNW 10.4 mph 27.6 mph 0.01 in Snow Light Snow
5:13 AM 32.0 °F 22.1 °F 32.0 °F 100% 29.92 in 0.5 mi WNW 13.8 mph 27.6 mph 0.02 in Fog , Snow Light Snow
5:44 AM 32.0 °F 22.1 °F 32.0 °F 100% 29.92 in 1.5 mi WNW 13.8 mph 25.3 mph 0.04 in   Overcast
5:50 AM 32.0 °F 24.2 °F 32.0 °F 100% 29.93 in 3.0 mi WNW 9.2 mph 32.2 mph 0.04 in   Overcast
5:53 AM 32.0 °F 24.2 °F 30.9 °F 96% 29.78 in 9.0 mi WNW 9.2 mph 32.2 mph 0.04 in   Overcast
6:07 AM 32.0 °F 23.0 °F 30.2 °F 93% 29.93 in 10.0 mi West 11.5 mph 25.3 mph N/A   Overcast
6:21 AM 32.0 °F 22.5 °F 30.2 °F 93% 29.94 in 10.0 mi WNW 12.7 mph 26.5 mph N/A   Overcast
6:53 AM 32.0 °F 23.6 °F 28.9 °F 88% 29.82 in 10.0 mi WNW 10.4 mph 28.8 mph N/A   Mostly Cloudy
7:00 AM 32.0 °F 24.8 °F 28.4 °F 87% 29.94 in 10.0 mi WNW 8.1 mph 24.2 mph N/A   Scattered Clouds
7:53 AM 30.9 °F 24.3 °F 27.0 °F 85% 29.83 in 10.0 mi Variable 6.9 mph 19.6 mph N/A   Partly Cloudy
8:53 AM 32.0 °F 26.4 °F 27.0 °F 82% 29.84 in 10.0 mi Variable 5.8 mph 18.4 mph N/A   Partly Cloudy
9:53 AM 34.0 °F 28.0 °F 26.1 °F 73% 29.84 in 10.0 mi Variable 6.9 mph - N/A   Partly Cloudy
10:53 AM 35.1 °F 27.9 °F 26.1 °F 70% 29.87 in 10.0 mi SW 9.2 mph 17.3 mph N/A   Partly Cloudy
11:53 AM 35.1 °F 27.4 °F 24.1 °F 64% 29.88 in 10.0 mi WSW 10.4 mph 16.1 mph N/A   Scattered Clouds
12:53 PM 37.9 °F 32.7 °F 21.0 °F 51% 29.87 in 10.0 mi Variable 6.9 mph - N/A   Clear
1:53 PM 39.0 °F 33.4 °F 18.0 °F 43% 29.89 in 10.0 mi WNW 8.1 mph - N/A   Clear
2:53 PM 39.0 °F 33.4 °F 19.0 °F 45% 29.90 in 10.0 mi WSW 8.1 mph - N/A   Scattered Clouds
3:53 PM 37.9 °F 32.1 °F 19.0 °F 47% 29.91 in 10.0 mi SW 8.1 mph - N/A   Partly Cloudy
4:53 PM 37.0 °F 30.4 °F 21.0 °F 52% 29.92 in 10.0 mi WSW 9.2 mph - N/A   Clear
5:53 PM 37.0 °F 30.4 °F 18.0 °F 46% 29.92 in 10.0 mi WSW 9.2 mph - N/A   Clear
6:53 PM 35.1 °F 29.3 °F 17.1 °F 48% 29.93 in 10.0 mi WSW 6.9 mph - N/A   Mostly Cloudy
7:53 PM 33.1 °F 26.1 °F 17.1 °F 52% 29.94 in 10.0 mi WSW 8.1 mph - N/A   Clear
8:53 PM 32.0 °F 24.8 °F 17.1 °F 54% 29.94 in 10.0 mi WSW 8.1 mph - N/A   Clear
9:53 PM 32.0 °F 24.8 °F 17.1 °F 54% 29.94 in 10.0 mi WSW 8.1 mph - N/A   Clear
10:53 PM 30.9 °F 24.3 °F 14.0 °F 50% 29.94 in 10.0 mi Variable 6.9 mph - N/A   Clear